Weather History for KJVL - August, 2014

Change the Weather History Date:

Saturday, August 30, 2014

  Actual Average Record
Temperature  
Mean Temperature 75 °F -  
Max Temperature 82 °F 76 °F 96 °F (2013)
Min Temperature 68 °F 55 °F 46 °F (1999)
Cooling Degree Days 10    
Growing Degree Days 25 (Base 50)    
Moisture  
Dew Point 67 °F    
Average Humidity 83    
Maximum Humidity 94    
Minimum Humidity 54    
Precipitation  
Precipitation 0.00 in - - ()
Sea Level Pressure  
Sea Level Pressure 29.83 in    
Wind  
Wind Speed 9 mph (SSW)    
Max Wind Speed 14 mph    
Max Gust Speed 20 mph    
Visibility 10 miles    
Events Rain    
Averages and records for this station are not official NWS values.
T = Trace of Precipitation, MM = Missing Value Source: NWS Daily Summary

Daily Weather History Graph

Daily Weather History Graph

Search for Another Location

Airport or City:

Trip Planner

Search our weather history database for the weather conditions in past years. The results will help you decide how hot, cold, wet, or windy it might be!

Date:

Astronomy

Aug. 30, 2014 Rise Set
Actual Time 6:18 AM CDT 7:33 PM CDT
Civil Twilight 5:49 AM CDT 8:02 PM CDT
Nautical Twilight 5:14 AM CDT 8:37 PM CDT
Astronomical Twilight 4:37 AM CDT 9:14 PM CDT
Moon 11:13 AM CDT (8/30) 10:00 PM CDT (8/30)
Length of Visible Light 14h 13m
Length of Day
13h 14m
Waxing Crescent, 23% of the Moon is Illuminated
Aug 30
Waxing Crescent
Sep 2
First Quarter
Sep 8
Full
Sep 15
Last Quarter
Sep 24
New

Hourly Weather History & Observations

Time (CDT) Temp. Heat Index Dew Point Humidity Pressure Visibility Wind Dir Wind Speed Gust Speed Precip Events Conditions
12:15 AM 73.4 °F - 69.8 °F 88% 29.83 in 10.0 mi South 11.5 mph 17.3 mph N/A   Clear
12:35 AM 73.4 °F - 68.0 °F 83% 29.83 in 10.0 mi SSW 10.4 mph - N/A   Scattered Clouds
12:55 AM 73.4 °F - 64.4 °F 73% 29.81 in 10.0 mi SSW 12.7 mph 17.3 mph N/A   Mostly Cloudy
1:15 AM 73.4 °F - 66.2 °F 78% 29.81 in 10.0 mi South 10.4 mph - N/A Rain Light Rain
1:35 AM 71.6 °F - 68.0 °F 88% 29.81 in 10.0 mi SSW 10.4 mph - N/A   Overcast
1:55 AM 71.6 °F - 68.0 °F 88% 29.80 in 10.0 mi SSW 9.2 mph - N/A   Mostly Cloudy
2:15 AM 71.6 °F - 68.0 °F 88% 29.80 in 10.0 mi South 10.4 mph - N/A   Mostly Cloudy
2:35 AM 71.6 °F - 68.0 °F 88% 29.80 in 10.0 mi SSW 9.2 mph - N/A   Mostly Cloudy
2:55 AM 71.6 °F - 68.0 °F 88% 29.80 in 10.0 mi SSW 9.2 mph - N/A   Overcast
3:15 AM 71.6 °F - 68.0 °F 88% 29.81 in 10.0 mi SSW 9.2 mph - N/A   Overcast
3:35 AM 71.6 °F - 68.0 °F 88% 29.80 in 10.0 mi SSW 9.2 mph - N/A   Overcast
3:55 AM 71.6 °F - 68.0 °F 88% 29.80 in 10.0 mi SSW 6.9 mph - N/A   Overcast
4:15 AM 71.6 °F - 68.0 °F 88% 29.80 in 10.0 mi SSW 8.1 mph - N/A   Mostly Cloudy
4:35 AM 71.6 °F - 68.0 °F 88% 29.80 in 10.0 mi SSW 9.2 mph - N/A   Mostly Cloudy
4:55 AM 71.6 °F - 68.0 °F 88% 29.79 in 10.0 mi SSW 9.2 mph - N/A   Overcast
5:15 AM 71.6 °F - 68.0 °F 88% 29.80 in 10.0 mi SW 9.2 mph - N/A   Overcast
5:35 AM 69.8 °F - 68.0 °F 94% 29.81 in 10.0 mi SSW 6.9 mph - N/A   Overcast
5:45 AM 71.6 °F - 68.0 °F 88% 29.81 in 10.0 mi South 8.1 mph - N/A   Overcast
6:45 AM 71.6 °F - 68.0 °F 88% 29.79 in 10.0 mi South 8.1 mph - N/A   Scattered Clouds
7:45 AM 71.6 °F - 68.0 °F 88% 29.81 in 10.0 mi SSW 8.1 mph - N/A   Scattered Clouds
8:45 AM 73.4 °F - 64.4 °F 73% 29.81 in 10.0 mi SSW 8.1 mph - N/A   Mostly Cloudy
9:45 AM 71.6 °F - 68.0 °F 88% 29.81 in 10.0 mi SSW 8.1 mph - N/A   Overcast
10:45 AM 71.6 °F - 69.8 °F 94% 29.81 in 4.0 mi SSW 8.1 mph - N/A Rain Light Rain
11:45 AM 73.4 °F - 66.2 °F 78% 29.81 in 10.0 mi WSW 11.5 mph 17.3 mph N/A   Mostly Cloudy
1:45 PM 73.4 °F - 68.0 °F 83% 29.83 in 6.0 mi WSW 9.2 mph - N/A Rain Rain
4:45 PM 82.4 °F 83.9 °F 64.4 °F 54% 29.83 in 10.0 mi WSW 13.8 mph 19.6 mph N/A   Mostly Cloudy
5:45 PM 78.8 °F - 64.4 °F 61% 29.83 in 10.0 mi WSW 9.2 mph - N/A   Mostly Cloudy
6:45 PM 78.8 °F - 64.4 °F 61% 29.84 in 10.0 mi SW 11.5 mph - N/A   Mostly Cloudy
7:45 PM 73.4 °F - 66.2 °F 78% 29.86 in 10.0 mi SW 6.9 mph - N/A   Scattered Clouds
8:45 PM 71.6 °F - 66.2 °F 83% 29.88 in 10.0 mi SW 6.9 mph - N/A   Scattered Clouds
9:15 PM 71.6 °F - 64.4 °F 78% 29.88 in 10.0 mi WSW 3.5 mph - N/A   Clear
9:35 PM 71.6 °F - 64.4 °F 78% 29.88 in 10.0 mi Calm Calm - N/A   Clear
9:55 PM 71.6 °F - 64.4 °F 78% 29.88 in 10.0 mi SSW 3.5 mph - N/A   Clear
10:15 PM 69.8 °F - 64.4 °F 83% 29.89 in 10.0 mi SW 4.6 mph - N/A   Clear
10:35 PM 69.8 °F - 64.4 °F 83% 29.90 in 10.0 mi Calm Calm - N/A   Clear
10:55 PM 69.8 °F - 64.4 °F 83% 29.90 in 10.0 mi Calm Calm - N/A   Clear
11:15 PM 69.8 °F - 64.4 °F 83% 29.90 in 10.0 mi Calm Calm - N/A   Clear
11:35 PM 68.0 °F - 64.4 °F 88% 29.90 in 10.0 mi Calm Calm - N/A   Clear
11:55 PM 68.0 °F - 64.4 °F 88% 29.90 in 10.0 mi Calm Calm - N/A   Clear